[[[{"header":{"parameterUnit":"kt","parameterCategory":2,"dx":1,"dy":1,"la1":30.253999710083008,"la2":30.299108505249023,"lo1":-89.0895004272461,"lo2":-89.04439544677734,"nx":28,"ny":28,"refTime":"2022-10-23T21:00:00:Z","depth":"0","parameterNumber":2,"parameterNumberName":"U-component_of_CURRENTS"},"data":[-0.5193,-0.5243,-0.5319,-0.5412,-0.5515,-0.5414,-0.5371,-0.5174,-0.5019,-0.4653,-0.4449,-0.4506,-0.456,-0.4628,-0.4262,-0.4084,-0.3893,-0.3861,-0.4057,-0.404,-0.4089,-0.4136,-0.4068,-0.3672,-0.3672,-0.3268,-0.3265,-0.3263,-0.5254,-0.536,-0.5524,-0.5665,-0.5777,-0.5874,-0.6009,-0.5872,-0.5867,-0.584,-0.5851,-0.5679,-0.5381,-0.5261,-0.4976,-0.481,-0.462,-0.4647,-0.4293,-0.4205,-0.4594,-0.4532,-0.4228,-0.4228,-0.4228,-0.4228,-0.4229,-0.4229,-0.5404,-0.5475,-0.5621,-0.5742,-0.592,-0.6034,-0.6024,-0.6231,-0.6362,-0.6299,-0.6699,-0.6561,-0.639,-0.6221,-0.615,-0.5669,-0.5885,-0.5246,-0.5314,-0.5344,-0.5188,-0.5788,-0.5732,-0.5738,-0.5742,-0.5747,-0.575,0,-0.5469,-0.5543,-0.5664,-0.5813,-0.5944,-0.6095,-0.6278,-0.6367,-0.6576,-0.6679,-0.688,-0.6967,-0.7018,-0.6707,-0.659,-0.6439,-0.5838,-0.5998,-0.5832,-0.5062,-0.5043,-0.4888,-0.5417,-0.5308,-0.5311,-0.5313,-0.5315,-0.5316,-0.5562,-0.5589,-0.5793,-0.5874,-0.5956,-0.6096,-0.6202,-0.6353,-0.6465,-0.6653,-0.6727,-0.6799,-0.6878,-0.683,-0.6649,-0.651,-0.6294,-0.6054,-0.5906,-0.5761,-0.5784,-0.5789,-0.5661,-0.5352,-0.5347,-0.5343,-0.534,0,-0.561,-0.5708,-0.5813,-0.5975,-0.6026,-0.6098,-0.6306,-0.6376,-0.644,-0.6555,-0.657,-0.6609,-0.6627,-0.6526,-0.6402,-0.6325,-0.6123,-0.6265,-0.5855,-0.5804,-0.5759,-0.5797,-0.5756,-0.5609,-0.6333,-0.6338,-0.6341,0,-0.5717,-0.5778,-0.5943,-0.5974,-0.6069,-0.6181,-0.6265,-0.6308,-0.6391,-0.6478,-0.6431,-0.6489,-0.6347,-0.6335,-0.6214,-0.6213,-0.6132,-0.6137,-0.6126,-0.5731,-0.5714,-0.5509,-0.5522,-0.5935,-0.5935,-0.5935,-0.5936,0,-0.574,-0.5909,-0.5978,-0.6022,-0.6166,-0.6204,-0.628,-0.6315,-0.6369,-0.637,-0.6396,-0.6334,-0.6335,-0.6232,-0.6167,-0.6114,-0.6097,-0.5998,-0.6094,-0.6104,-0.5705,-0.5685,-0.5489,-0.5936,-0.5936,-0.5936,-0.5936,0,-0.5828,-0.5914,-0.6005,-0.6144,-0.6174,-0.6223,-0.6274,-0.6322,-0.6336,-0.6329,-0.6307,-0.6273,-0.6243,-0.6192,-0.6104,-0.6115,-0.6046,-0.5994,-0.5991,-0.6134,-0.61,-0.5652,-0.5665,-0.5472,-0.5937,-0.5937,-0.5937,0,-0.5803,-0.5925,-0.6011,-0.6101,-0.6154,-0.6202,-0.6235,-0.6263,-0.6259,-0.6265,-0.6221,-0.6201,-0.6146,-0.6124,-0.6097,-0.6031,-0.6008,-0.6022,-0.5919,-0.5917,-0.6047,-0.616,-0.5726,-0.5678,-0.5939,-0.5939,-0.5939,0,-0.5779,-0.5944,-0.5953,-0.5996,-0.6084,-0.6139,-0.6171,-0.6207,-0.6215,-0.6197,-0.6205,-0.6145,-0.6111,-0.6082,-0.6034,-0.601,-0.6009,-0.5968,-0.5965,-0.5926,-0.5956,-0.6139,-0.6154,-0.5975,-0.5975,-0.5975,-0.5941,0,-0.5797,-0.5871,-0.5921,-0.5995,-0.605,-0.6111,-0.6146,-0.6156,-0.6144,-0.614,-0.6116,-0.6044,-0.5999,-0.5997,-0.5948,-0.5954,-0.5934,-0.5901,-0.5833,-0.5902,-0.5881,-0.588,-0.5872,-0.587,-0.5869,-0.5868,0,0,-0.5709,-0.5809,-0.5873,-0.5938,-0.5983,-0.6005,-0.6057,-0.607,-0.6074,-0.6063,-0.6033,-0.596,-0.5897,-0.5869,-0.5893,-0.587,-0.5848,-0.5839,-0.5887,-0.5889,-0.5891,-0.5874,-0.5874,-0.5866,-0.5865,-0.5865,-0.5864,0,-0.5715,-0.5779,-0.5843,-0.5892,-0.5966,-0.5987,-0.6012,-0.6055,-0.6048,-0.6034,-0.597,-0.5931,-0.5862,-0.582,-0.579,-0.585,-0.5778,-0.586,-0.5906,-0.5877,-0.5881,-0.5884,-0.5869,-0.587,-0.5861,-0.5862,-0.5862,0,-0.5656,-0.5726,-0.5764,-0.587,-0.5901,-0.5951,-0.5943,-0.6008,-0.6025,-0.5921,-0.5895,-0.5843,-0.5778,-0.5752,-0.5735,-0.5707,-0.571,-0.5708,-0.5715,-0.571,-0.5676,-0.5682,-0.5688,-0.5603,-0.5603,-0.5602,0,0,-0.5643,-0.5718,-0.5793,-0.5871,-0.5901,-0.593,-0.5965,-0.597,-0.5961,-0.5946,-0.5877,-0.5816,-0.5772,-0.5732,-0.5685,-0.5659,-0.5623,-0.5676,-0.5688,-0.5698,-0.5698,-0.5667,-0.5675,-0.5598,-0.5598,-0.5598,0,0,-0.5631,-0.5734,-0.5727,-0.5833,-0.5881,-0.5933,-0.5971,-0.5972,-0.5936,-0.5911,-0.5817,-0.5789,-0.5751,-0.5707,-0.5673,-0.5669,-0.5623,-0.5626,-0.5674,-0.5688,-0.57,-0.5707,-0.5584,0,0,0,0,0,-0.5649,-0.5728,-0.5722,-0.5747,-0.5852,-0.5937,-0.5946,-0.5954,-0.5931,-0.5952,-0.5873,-0.5808,-0.5684,-0.565,-0.5628,-0.5646,-0.5554,-0.5562,-0.557,-0.5626,-0.5642,-0.5656,0,0,0,0,0,0,-0.5659,-0.5689,-0.5721,-0.5782,-0.5807,-0.5933,-0.5887,-0.5889,-0.5928,-0.5923,-0.5828,-0.5805,-0.5729,-0.5655,-0.5636,-0.5656,-0.559,-0.5557,-0.5564,-0.557,-0.5632,-0.5645,-0.5656,0,0,0,0,0,-0.5668,-0.5692,-0.5864,-0.5779,-0.5801,-0.5838,-0.5884,-0.5885,-0.5898,-0.5822,-0.5803,-0.5908,-0.5732,-0.5709,-0.5643,-0.5667,-0.5602,-0.5595,-0.5562,-0.5567,-0.5572,-0.5638,0,0,0,0,0,0,-0.5674,-0.5662,-0.5867,-0.5874,-0.5762,-0.583,-0.5841,-0.5882,-0.5789,-0.578,-0.5894,-0.5889,-0.5735,-0.5716,-0.5699,-0.5677,-0.5612,-0.5605,-0.5601,-0.5566,-0.557,-0.5573,0,0,0,0,0,0,-0.565,-0.5667,-0.587,-0.5847,-0.585,-0.5822,-0.5832,-0.577,-0.5782,-0.5859,-0.5859,-0.5892,-0.5717,-0.5721,-0.5707,-0.5614,-0.562,-0.5613,-0.5609,-0.5606,-0.5569,-0.5572,0,0,0,0,0,0,-0.5657,-0.5671,-0.5844,-0.5847,-0.5849,-0.5911,-0.5757,-0.5827,-0.5886,-0.5857,-0.5881,-0.5879,-0.572,-0.5708,-0.5714,-0.5627,-0.5617,-0.562,-0.5615,-0.5612,-0.561,0,0,0,0,0,0,0,-0.5662,-0.5572,-0.5847,-0.5846,-0.5848,-0.5939,-0.5939,-0.5939,-0.5886,-0.5884,-0.5882,-0.588,-0.5657,-0.565,-0.5642,-0.5637,0,0,-0.562,-0.5617,0,0,0,0,0,0,0,0,-0.5565,-0.557,-0.5848,-0.585,-0.5853,-0.5939,-0.5939,-0.5939,-0.5885,-0.5884,-0.5882,-0.588,-0.5655,-0.5649,-0.5643,0,0,0,0,0,0,0,0,0,0,0,0,0,0,0,-0.5848,-0.585,0,-0.5939,-0.5939,-0.5939,-0.5885,-0.5884,-0.5882,-0.5881,-0.5653,-0.5648,-0.5644,0,0,0,0,0,0,0,0,0,0,0,0,0,0,0,0,0,0,0,0,0,0,0,0,0,0,0,0,0,0,0,0,0,0,0,0,0,0,0,0,0,0,0,0,0,0,0,0,0,0,0,0,0,0,0,0,0,0,0,0,0,0,0,0,0,0,0,0,0]}],[{"header":{"parameterUnit":"kt","parameterCategory":2,"dx":1,"dy":1,"la1":30.253999710083008,"la2":30.299108505249023,"lo1":-89.0895004272461,"lo2":-89.04439544677734,"nx":28,"ny":28,"refTime":"2022-10-23T21:00:00:Z","depth":"0","parameterNumber":3,"parameterNumberName":"V-component_of_CURRENTS"},"data":[-0.2386,-0.2623,-0.2768,-0.3277,-0.3463,-0.37,-0.3729,-0.3564,-0.3225,-0.2488,-0.1717,-0.1116,0.0348,0.229,0.3333,0.3368,0.3621,0.3614,0.3732,0.3187,0.3104,0.3025,0.3083,0.382,0.3821,0.4446,0.4452,0.4457,-0.2306,-0.2478,-0.2678,-0.2906,-0.317,-0.313,-0.3198,-0.3188,-0.3149,-0.2726,-0.245,-0.1216,-0.016,0.0861,0.2126,0.2522,0.2538,0.2658,0.2722,0.2757,0.1995,0.2025,0.2549,0.2549,0.2549,0.2548,0.2548,0.2548,-0.2183,-0.2291,-0.2416,-0.2581,-0.2721,-0.2869,-0.2934,-0.2893,-0.2881,-0.2637,-0.2394,-0.19,-0.0776,0.0358,0.0708,0.1575,0.1423,0.1733,0.1815,0.184,0.1994,0.1139,0.1494,0.1492,0.1491,0.149,0.1489,0,-0.2064,-0.2085,-0.2148,-0.2311,-0.2401,-0.2487,-0.2519,-0.2546,-0.2393,-0.23,-0.2124,-0.1896,-0.1128,-0.0443,0.0312,0.056,0.0988,0.0847,0.1141,0.1379,0.1488,0.164,0.064,0.0894,0.0889,0.0885,0.0883,0.0881,-0.1917,-0.1965,-0.1998,-0.2068,-0.2069,-0.2101,-0.2157,-0.2027,-0.2045,-0.1814,-0.1832,-0.1473,-0.1253,-0.0609,-0.0083,0.0398,0.0524,0.0717,0.0669,0.0983,0.1135,0.1187,0.1273,0.0829,0.0835,0.0841,0.0845,0,-0.1853,-0.1823,-0.1871,-0.1837,-0.1835,-0.1868,-0.1835,-0.1869,-0.171,-0.1694,-0.1657,-0.1371,-0.1062,-0.0733,-0.0413,-0.0198,0.0294,0.0197,0.0264,0.0343,0.0896,0.0985,0.1431,0.1573,0.0554,0.056,0.0565,0,-0.1724,-0.1744,-0.1707,-0.1727,-0.1768,-0.1646,-0.1668,-0.1583,-0.1485,-0.1488,-0.1268,-0.1221,-0.0933,-0.0733,-0.0553,-0.0226,-0.0301,-0.0043,0.0031,0.0077,0.0098,0.0416,0.0515,-0.0202,-0.0204,-0.0205,-0.0207,0,-0.1631,-0.1604,-0.1637,-0.1615,-0.1539,-0.1526,-0.1479,-0.1363,-0.1348,-0.1205,-0.1173,-0.1012,-0.0939,-0.0779,-0.0563,-0.0595,-0.032,-0.0329,-0.0059,-0.0043,0.0093,0.0119,0.051,-0.0209,-0.021,-0.021,-0.0211,0,-0.1513,-0.1511,-0.1533,-0.1479,-0.1466,-0.144,-0.1359,-0.131,-0.1188,-0.1129,-0.1046,-0.0953,-0.0854,-0.0827,-0.0624,-0.0679,-0.0566,-0.0468,-0.0456,-0.0262,-0.0191,0.0062,0.0172,0.0476,-0.0289,-0.0291,-0.0292,0,-0.1457,-0.1464,-0.139,-0.1386,-0.1383,-0.1273,-0.1231,-0.1152,-0.1076,-0.101,-0.0922,-0.0863,-0.0823,-0.0794,-0.074,-0.0609,-0.0551,-0.0637,-0.0401,-0.0394,-0.0244,-0.0177,-0.0089,0.0131,-0.0314,-0.0312,-0.031,0,-0.1397,-0.1332,-0.1331,-0.1324,-0.1217,-0.1194,-0.1134,-0.1075,-0.1053,-0.0956,-0.092,-0.0838,-0.0792,-0.0755,-0.0694,-0.0646,-0.0576,-0.0602,-0.0596,-0.0519,-0.0407,-0.0227,-0.0195,-0.0553,-0.0552,-0.0552,-0.0327,0,-0.1308,-0.1288,-0.1286,-0.123,-0.1184,-0.1166,-0.1081,-0.1033,-0.0978,-0.0924,-0.0855,-0.0759,-0.0692,-0.067,-0.0632,-0.06,-0.0553,-0.0537,-0.0521,-0.0528,-0.0423,-0.041,-0.0545,-0.0543,-0.0542,-0.0541,0,0,-0.1273,-0.1252,-0.1185,-0.1165,-0.1137,-0.1057,-0.1049,-0.0994,-0.0893,-0.0866,-0.0842,-0.0703,-0.0645,-0.0595,-0.0602,-0.0553,-0.0495,-0.0573,-0.0525,-0.0524,-0.0523,-0.0425,-0.0414,-0.054,-0.0539,-0.0539,-0.0538,0,-0.124,-0.1187,-0.1188,-0.1144,-0.1087,-0.1038,-0.1034,-0.0953,-0.0921,-0.0845,-0.0788,-0.0732,-0.0629,-0.0589,-0.0558,-0.054,-0.0484,-0.0531,-0.0583,-0.0518,-0.0518,-0.0518,-0.0423,-0.0413,-0.0536,-0.0536,-0.0536,0,-0.1198,-0.1154,-0.1146,-0.108,-0.1042,-0.1013,-0.0975,-0.094,-0.0915,-0.0826,-0.0761,-0.0699,-0.0628,-0.0574,-0.0547,-0.0539,-0.0463,-0.0497,-0.0501,-0.0517,-0.045,-0.045,-0.045,-0.0448,-0.0448,-0.0448,0,0,-0.1175,-0.1153,-0.1088,-0.107,-0.1051,-0.0987,-0.0961,-0.0929,-0.0864,-0.0837,-0.0767,-0.0698,-0.0643,-0.0609,-0.0545,-0.0486,-0.0435,-0.049,-0.0494,-0.0498,-0.0516,-0.045,-0.0451,-0.0448,-0.0448,-0.0448,0,0,-0.117,-0.1105,-0.1079,-0.1053,-0.101,-0.0939,-0.0929,-0.0895,-0.0827,-0.0819,-0.0747,-0.0726,-0.0668,-0.0621,-0.0631,-0.0565,-0.0543,-0.0538,-0.0605,-0.0609,-0.0613,-0.0654,-0.0612,0,0,0,0,0,-0.1119,-0.1112,-0.1089,-0.1077,-0.0991,-0.0945,-0.0931,-0.0892,-0.0879,-0.0872,-0.0796,-0.0779,-0.0618,-0.0625,-0.0603,-0.0619,-0.0452,-0.0451,-0.0451,-0.0521,-0.0526,-0.0531,0,0,0,0,0,0,-0.1113,-0.1099,-0.1089,-0.1021,-0.1001,-0.0944,-0.0921,-0.0908,-0.088,-0.0878,-0.079,-0.0776,-0.0727,-0.0634,-0.0614,-0.0631,-0.0619,-0.0452,-0.0451,-0.0451,-0.0523,-0.0527,-0.0531,0,0,0,0,0,-0.1109,-0.1098,-0.0976,-0.102,-0.1003,-0.0945,-0.0922,-0.0912,-0.0886,-0.0806,-0.0792,-0.0863,-0.0727,-0.0708,-0.0622,-0.0642,-0.0632,-0.0625,-0.0452,-0.0451,-0.0451,-0.0525,0,0,0,0,0,0,-0.1106,-0.1074,-0.0971,-0.0963,-0.1037,-0.0948,-0.0935,-0.0915,-0.0814,-0.0801,-0.0876,-0.0875,-0.0727,-0.0712,-0.0697,-0.065,-0.0642,-0.0635,-0.0631,-0.0451,-0.0451,-0.045,0,0,0,0,0,0,-0.108,-0.1067,-0.0967,-0.0991,-0.0985,-0.0951,-0.094,-0.0863,-0.0812,-0.0887,-0.0885,-0.0877,-0.075,-0.0714,-0.0703,-0.0583,-0.065,-0.0644,-0.0639,-0.0636,-0.0451,-0.0451,0,0,0,0,0,0,-0.1073,-0.1063,-0.0992,-0.0988,-0.0983,-0.089,-0.088,-0.0792,-0.0843,-0.0891,-0.0847,-0.0848,-0.0753,-0.074,-0.0707,-0.0593,-0.0586,-0.065,-0.0645,-0.0642,-0.064,0,0,0,0,0,0,0,-0.1068,-0.1156,-0.1022,-0.0985,-0.0981,-0.0894,-0.0891,-0.0888,-0.0844,-0.0845,-0.0846,-0.0848,-0.0689,-0.0682,-0.0674,-0.06,0,0,-0.0651,-0.0647,0,0,0,0,0,0,0,0,-0.1159,-0.1157,-0.1022,-0.1021,-0.102,-0.0893,-0.0891,-0.0889,-0.0844,-0.0845,-0.0846,-0.0847,-0.0687,-0.0681,-0.0675,0,0,0,0,0,0,0,0,0,0,0,0,0,0,0,-0.1022,-0.1021,0,-0.0893,-0.0891,-0.0889,-0.0844,-0.0845,-0.0846,-0.0847,-0.0686,-0.0681,-0.0676,0,0,0,0,0,0,0,0,0,0,0,0,0,0,0,0,0,0,0,0,0,0,0,0,0,0,0,0,0,0,0,0,0,0,0,0,0,0,0,0,0,0,0,0,0,0,0,0,0,0,0,0,0,0,0,0,0,0,0,0,0,0,0,0,0,0,0,0,0]}]],[[{"header":{"parameterUnit":"kt","parameterCategory":2,"dx":1,"dy":1,"la1":30.253999710083008,"la2":30.299108505249023,"lo1":-89.0895004272461,"lo2":-89.04439544677734,"nx":28,"ny":28,"refTime":"2022-10-23T21:00:00:Z","depth":"2","parameterNumber":2,"parameterNumberName":"U-component_of_CURRENTS"},"data":[-0.3346,-0.324,-0.3087,-0.3103,-0.3136,-0.3192,-0.3339,-0.3226,-0.3317,-0.3403,-0.3353,-0.3429,-0.3682,-0.296,-0.2848,-0.262,-0.2778,-0.248,-0.4004,-0.3396,-0.3449,-0.3594,-0.3349,0,0,0,0,0,-0.3338,-0.3258,-0.3179,-0.3211,-0.3256,-0.3428,-0.3764,-0.3692,-0.3894,-0.4254,-0.4497,-0.4164,-0.3898,-0.394,-0.3541,-0.3583,-0.326,-0.3519,-0.296,-0.3026,-0.3084,-0.2876,-0.2443,-0.2439,-0.2435,-0.2432,0,0,-0.3364,-0.3301,-0.3258,-0.323,-0.3347,-0.3673,-0.3679,-0.3927,-0.4242,-0.4614,-0.5165,-0.5247,-0.5198,-0.48,-0.4669,-0.4527,-0.4841,-0.4509,-0.4507,-0.4519,-0.4405,-0.4267,-0.4366,-0.4375,-0.4382,-0.4389,-0.4395,0,-0.3355,-0.3402,-0.331,-0.3334,-0.3412,-0.3504,-0.3668,-0.3876,-0.4202,-0.4545,-0.5194,-0.5494,-0.5746,-0.5436,-0.5432,-0.5269,-0.4973,-0.495,-0.5716,-0.4012,-0.384,-0.3873,-0.3884,-0.3892,-0.3898,-0.3903,-0.3906,-0.3909,-0.3259,-0.3327,-0.33,-0.3351,-0.3324,-0.3412,-0.3455,-0.358,-0.38,-0.4433,-0.4681,-0.5213,-0.5505,-0.577,-0.5596,-0.5519,-0.5673,-0.5073,-0.4743,-0.5253,-0.5299,-0.5267,-0.5237,-0.3977,-0.3968,-0.3961,-0.3955,0,-0.3242,-0.3174,-0.3216,-0.318,-0.3188,-0.3267,-0.3359,-0.348,-0.3785,-0.4191,-0.4385,-0.4762,-0.5089,-0.5119,-0.5341,-0.5189,-0.5303,-0.54,-0.4625,-0.4618,-0.5212,-0.519,-0.5523,-0.5531,-0.5537,-0.5542,-0.5547,0,-0.3046,-0.3082,-0.2944,-0.2996,-0.3049,-0.3098,-0.3282,-0.3369,-0.3623,-0.3886,-0.4082,-0.4416,-0.4491,-0.4719,-0.4662,-0.4857,-0.4875,-0.4908,-0.4991,-0.4351,-0.4308,-0.4709,-0.4689,-0.4858,-0.4856,-0.4855,-0.4853,0,-0.2923,-0.2848,-0.2835,-0.2856,-0.2881,-0.2964,-0.3008,-0.3228,-0.3345,-0.3719,-0.3957,-0.4064,-0.4338,-0.4367,-0.4524,-0.4425,-0.4792,-0.4688,-0.4886,-0.4893,-0.4368,-0.4327,-0.4852,-0.4852,-0.4851,-0.4851,-0.485,0,-0.2718,-0.2648,-0.2664,-0.2705,-0.2741,-0.2818,-0.3049,-0.3118,-0.3366,-0.3495,-0.366,-0.3862,-0.4014,-0.399,-0.417,-0.4124,-0.4243,-0.4363,-0.4377,-0.4525,-0.457,-0.4067,-0.412,-0.4504,-0.45,-0.4497,-0.4495,0,-0.2637,-0.2577,-0.2514,-0.2618,-0.2695,-0.2766,-0.2857,-0.2987,-0.3129,-0.3338,-0.3445,-0.3733,-0.3615,-0.383,-0.3838,-0.4108,-0.4161,-0.4032,-0.4369,-0.4376,-0.4466,-0.4651,-0.396,-0.409,-0.4456,-0.446,-0.4463,0,-0.2621,-0.25,-0.2533,-0.2563,-0.2642,-0.2726,-0.2814,-0.294,-0.306,-0.3159,-0.3339,-0.3517,-0.361,-0.3709,-0.3846,-0.3926,-0.4092,-0.4016,-0.4024,-0.4049,-0.443,-0.4576,-0.4616,-0.4231,-0.4236,-0.424,-0.4433,0,-0.2497,-0.2531,-0.255,-0.2555,-0.2629,-0.2696,-0.2798,-0.2889,-0.2962,-0.3037,-0.3269,-0.3425,-0.3621,-0.3699,-0.3763,-0.3956,-0.4001,-0.4055,-0.3975,-0.4067,-0.4139,-0.4163,-0.3881,-0.3881,-0.388,-0.388,0,0,-0.255,-0.2507,-0.2514,-0.253,-0.2591,-0.2687,-0.2736,-0.2808,-0.2962,-0.3033,-0.3048,-0.3411,-0.3516,-0.3724,-0.377,-0.3848,-0.3949,-0.38,-0.4021,-0.4036,-0.4051,-0.4123,-0.4146,-0.388,-0.388,-0.388,-0.388,0,-0.2474,-0.252,-0.248,-0.2538,-0.2627,-0.2687,-0.2707,-0.2826,-0.2883,-0.301,-0.3146,-0.3296,-0.3509,-0.3621,-0.3704,-0.3837,-0.3918,-0.3933,-0.3858,-0.4016,-0.4031,-0.4045,-0.4119,-0.4139,-0.388,-0.388,-0.388,0,-0.2447,-0.245,-0.2442,-0.2524,-0.2608,-0.2668,-0.2706,-0.2795,-0.2845,-0.2952,-0.3081,-0.3243,-0.3396,-0.3562,-0.3643,-0.3589,-0.3834,-0.3764,-0.3767,-0.3728,-0.3889,-0.3907,-0.3923,-0.3712,-0.3711,-0.371,0,0,-0.2406,-0.2364,-0.2466,-0.2532,-0.2576,-0.2674,-0.2726,-0.2774,-0.2883,-0.293,-0.3042,-0.3176,-0.3343,-0.3396,-0.3558,-0.3665,-0.3712,-0.3738,-0.3746,-0.3752,-0.3717,-0.3878,-0.3896,-0.3706,-0.3706,-0.3706,0,0,-0.2412,-0.2419,-0.2457,-0.2523,-0.2614,-0.2722,-0.2777,-0.2809,-0.2922,-0.2942,-0.3048,-0.3087,-0.3281,-0.332,-0.3256,-0.352,-0.3493,-0.351,-0.3464,-0.3475,-0.3483,-0.3405,-0.3286,0,0,0,0,0,-0.2374,-0.2403,-0.2437,-0.2462,-0.2606,-0.2705,-0.2727,-0.2805,-0.2816,-0.2848,-0.2965,-0.2998,-0.332,-0.3264,-0.3299,-0.3372,-0.3655,-0.3664,-0.3672,-0.3649,-0.366,-0.3669,0,0,0,0,0,0,-0.2384,-0.2412,-0.2437,-0.2542,-0.2577,-0.2704,-0.2726,-0.2748,-0.2815,-0.2822,-0.2974,-0.3001,-0.3078,-0.3251,-0.3282,-0.3349,-0.3276,-0.3658,-0.3666,-0.3673,-0.3652,-0.3661,-0.3669,0,0,0,0,0,-0.2393,-0.2416,-0.2621,-0.2543,-0.2573,-0.2688,-0.2725,-0.2744,-0.2795,-0.2935,-0.2962,-0.2854,-0.3075,-0.311,-0.327,-0.3334,-0.3255,-0.3266,-0.3663,-0.3669,-0.3675,-0.3657,0,0,0,0,0,0,-0.24,-0.2429,-0.263,-0.2643,-0.2539,-0.2684,-0.2706,-0.274,-0.2907,-0.2933,-0.282,-0.2824,-0.3074,-0.3101,-0.3127,-0.3325,-0.3238,-0.325,-0.3257,-0.3668,-0.3673,-0.3677,0,0,0,0,0,0,-0.2418,-0.2438,-0.2636,-0.2626,-0.2638,-0.2679,-0.2699,-0.2815,-0.291,-0.2782,-0.279,-0.282,-0.3061,-0.3095,-0.3116,-0.3292,-0.3226,-0.3236,-0.3244,-0.3249,-0.3672,-0.3676,0,0,0,0,0,0,-0.2428,-0.2446,-0.2623,-0.2632,-0.2643,-0.2792,-0.2786,-0.2941,-0.286,-0.2774,-0.2861,-0.2861,-0.3056,-0.3076,-0.3107,-0.3274,-0.3287,-0.3226,-0.3233,-0.3239,-0.3242,0,0,0,0,0,0,0,-0.2437,-0.2293,-0.2558,-0.2637,-0.2647,-0.2765,-0.2768,-0.2771,-0.286,-0.2861,-0.2861,-0.2861,-0.3164,-0.3176,-0.3188,-0.326,0,0,-0.3225,-0.323,0,0,0,0,0,0,0,0,-0.2288,-0.2292,-0.2559,-0.2562,-0.2565,-0.2766,-0.2768,-0.277,-0.286,-0.2861,-0.2861,-0.2861,-0.3167,-0.3176,-0.3186,0,0,0,0,0,0,0,0,0,0,0,0,0,0,0,-0.2559,-0.2562,0,-0.2766,-0.2768,-0.277,-0.286,-0.2861,-0.2861,-0.2861,-0.317,-0.3177,-0.3185,0,0,0,0,0,0,0,0,0,0,0,0,0,0,0,0,0,0,0,0,0,0,0,0,0,0,0,0,0,0,0,0,0,0,0,0,0,0,0,0,0,0,0,0,0,0,0,0,0,0,0,0,0,0,0,0,0,0,0,0,0,0,0,0,0,0,0,0,0]}],[{"header":{"parameterUnit":"kt","parameterCategory":2,"dx":1,"dy":1,"la1":30.253999710083008,"la2":30.299108505249023,"lo1":-89.0895004272461,"lo2":-89.04439544677734,"nx":28,"ny":28,"refTime":"2022-10-23T21:00:00:Z","depth":"2","parameterNumber":3,"parameterNumberName":"V-component_of_CURRENTS"},"data":[-0.171,-0.1851,-0.19,-0.2245,-0.2384,-0.2602,-0.2672,-0.2558,-0.2383,-0.2157,-0.1812,-0.1312,-0.0487,0.0008,0.0532,0.09,0.0797,0.0911,0.0947,0.0468,0.0437,0.0758,0.0756,0,0,0,0,0,-0.167,-0.1772,-0.1869,-0.1993,-0.2184,-0.2175,-0.2266,-0.2269,-0.2276,-0.2038,-0.1866,-0.1209,-0.0505,0.0126,0.0832,0.1267,0.1107,0.1327,0.1002,0.0974,0.0949,0.0967,0.1227,0.1228,0.1229,0.123,0,0,-0.1606,-0.1659,-0.1729,-0.1786,-0.1882,-0.202,-0.2066,-0.2046,-0.205,-0.1938,-0.1711,-0.1343,-0.0758,0.0193,0.062,0.1046,0.1014,0.1069,0.1044,0.1019,0.1055,0.1131,0.1331,0.1332,0.1333,0.1334,0.1335,0,-0.1514,-0.1541,-0.1551,-0.1637,-0.167,-0.1707,-0.1721,-0.1753,-0.1638,-0.1587,-0.1482,-0.1306,-0.0687,-0.0182,0.0463,0.066,0.0705,0.083,0.0704,0.0484,0.0541,0.0566,0.0554,0.0622,0.0619,0.0617,0.0615,0.0614,-0.137,-0.1425,-0.1401,-0.1442,-0.1409,-0.1428,-0.1437,-0.1312,-0.1338,-0.1189,-0.121,-0.0959,-0.0751,-0.0216,0.0196,0.0579,0.0505,0.0736,0.0715,0.0664,0.0696,0.0684,0.0674,0.0583,0.0587,0.059,0.0593,0,-0.1321,-0.1258,-0.1265,-0.1193,-0.117,-0.1202,-0.1123,-0.1152,-0.1076,-0.1086,-0.1094,-0.085,-0.0604,-0.0336,-0.0149,0.0093,0.031,0.0411,0.0334,0.0377,0.0624,0.0625,0.0742,0.0752,0.0761,0.0768,0.0774,0,-0.1157,-0.1147,-0.1046,-0.1059,-0.1073,-0.0934,-0.0973,-0.0877,-0.0822,-0.0827,-0.068,-0.0642,-0.0448,-0.0305,-0.0157,0.0142,-0.0012,0.0306,0.0353,0.0238,0.0256,0.0093,0.0102,0.0012,0.0011,0.001,0.001,0,-0.1054,-0.0925,-0.0937,-0.0883,-0.0738,-0.0736,-0.0674,-0.0581,-0.0557,-0.0514,-0.0512,-0.0404,-0.0382,-0.0295,-0.01,-0.0121,0.002,0.0007,0.0294,0.0315,0.0268,0.0291,0.0009,0.0009,0.0009,0.0008,0.0008,0,-0.0849,-0.0816,-0.0797,-0.0668,-0.0644,-0.0595,-0.0535,-0.0466,-0.0376,-0.0327,-0.0282,-0.0234,-0.0173,-0.0128,-0.002,-0.004,-0.0004,0.0049,0.0053,0.0341,0.0412,0.0398,0.0367,0.0147,0.0147,0.0148,0.0148,0,-0.0795,-0.0744,-0.0607,-0.0555,-0.0525,-0.0364,-0.0318,-0.0214,-0.0142,-0.0108,-0.003,-0.0049,0.005,0.0008,0.0048,0.0079,0.0092,0.0089,0.0146,0.015,0.0396,0.0375,0.0272,0.0363,0.0151,0.0151,0.0151,0,-0.0725,-0.0545,-0.054,-0.0497,-0.0319,-0.0259,-0.0199,-0.009,-0.0092,0.0034,0.0033,0.0067,0.0091,0.0105,0.0136,0.0153,0.0111,0.0162,0.0163,0.0208,0.0082,0.0349,0.0373,0.0067,0.0065,0.0063,0.0153,0,-0.0524,-0.0484,-0.0485,-0.0351,-0.0273,-0.022,-0.0057,-0.001,0.0053,0.0157,0.0144,0.0209,0.0227,0.0227,0.026,0.0203,0.0228,0.0228,0.0306,0.0233,0.0288,0.0285,0.0348,0.035,0.0352,0.0353,0,0,-0.0483,-0.0423,-0.0299,-0.0247,-0.0179,-0.0028,0.0013,0.0106,0.0259,0.0273,0.03,0.0327,0.0354,0.0339,0.0321,0.0334,0.0335,0.036,0.0272,0.0262,0.0254,0.0301,0.0297,0.0356,0.0357,0.0357,0.0358,0,-0.0375,-0.0332,-0.0317,-0.0209,-0.0077,0.0037,0.004,0.0215,0.0264,0.0323,0.035,0.0343,0.0384,0.0416,0.0427,0.036,0.0392,0.0331,0.031,0.0287,0.0275,0.0265,0.0309,0.0304,0.0362,0.0362,0.0362,0,-0.0267,-0.0177,-0.0153,-0.0019,0.0067,0.0149,0.0245,0.0308,0.0369,0.0443,0.0474,0.0475,0.0508,0.05,0.0487,0.0537,0.0482,0.0496,0.0487,0.0495,0.0474,0.046,0.0448,0.0607,0.0607,0.0608,0,0,-0.0194,-0.0156,0.0023,0.0018,0.0061,0.022,0.0273,0.0357,0.0439,0.0458,0.0512,0.0535,0.0528,0.0542,0.0547,0.0553,0.0584,0.0523,0.0511,0.0501,0.0503,0.048,0.0467,0.061,0.061,0.061,0,0,-0.0147,0.0033,0.0081,0.0083,0.0211,0.0403,0.0398,0.048,0.0524,0.0493,0.0569,0.0576,0.0528,0.0579,0.0599,0.057,0.0621,0.0618,0.0543,0.053,0.0518,0.0517,0.066,0,0,0,0,0,0.0059,0.0019,0.0061,0.0082,0.0248,0.0386,0.0415,0.0514,0.0516,0.0527,0.0557,0.0582,0.0609,0.063,0.0636,0.0589,0.0635,0.063,0.0626,0.0527,0.0512,0.05,0,0,0,0,0,0,0.0069,0.0093,0.0064,0.0244,0.0284,0.0386,0.0448,0.0477,0.0517,0.0523,0.0581,0.0586,0.0641,0.0629,0.0634,0.0588,0.0658,0.0633,0.0629,0.0626,0.0522,0.051,0.0499,0,0,0,0,0,0.0078,0.0098,0.0314,0.0248,0.0282,0.0424,0.0446,0.047,0.0494,0.0585,0.0593,0.0555,0.0642,0.0646,0.0633,0.0584,0.0655,0.0656,0.063,0.0628,0.0625,0.0516,0,0,0,0,0,0,0.0084,0.0139,0.0325,0.0343,0.0226,0.042,0.0445,0.0464,0.0551,0.0565,0.0563,0.0566,0.0643,0.0646,0.0649,0.058,0.0652,0.0654,0.0655,0.0628,0.0626,0.0624,0,0,0,0,0,0,0.013,0.0152,0.0334,0.0301,0.0316,0.0415,0.0437,0.0459,0.0545,0.0523,0.0531,0.0562,0.0583,0.0646,0.0648,0.0685,0.065,0.0651,0.0653,0.0653,0.0626,0.0625,0,0,0,0,0,0,0.0143,0.0163,0.0297,0.0308,0.0322,0.0528,0.0432,0.0558,0.0626,0.0513,0.0622,0.0621,0.0578,0.0586,0.0648,0.0684,0.0684,0.065,0.0651,0.0652,0.0652,0,0,0,0,0,0,0,0.0154,-0.0022,0.0219,0.0315,0.0326,0.0506,0.0511,0.0516,0.0626,0.0624,0.0623,0.0622,0.064,0.0642,0.0644,0.0683,0,0,0.065,0.065,0,0,0,0,0,0,0,0,-0.0025,-0.0023,0.0219,0.0223,0.0227,0.0507,0.0511,0.0515,0.0625,0.0624,0.0623,0.0622,0.064,0.0642,0.0643,0,0,0,0,0,0,0,0,0,0,0,0,0,0,0,0.022,0.0223,0,0.0508,0.0511,0.0514,0.0625,0.0624,0.0623,0.0623,0.0641,0.0642,0.0643,0,0,0,0,0,0,0,0,0,0,0,0,0,0,0,0,0,0,0,0,0,0,0,0,0,0,0,0,0,0,0,0,0,0,0,0,0,0,0,0,0,0,0,0,0,0,0,0,0,0,0,0,0,0,0,0,0,0,0,0,0,0,0,0,0,0,0,0,0]}]],[[{"header":{"parameterUnit":"kt","parameterCategory":2,"dx":1,"dy":1,"la1":30.253999710083008,"la2":30.299108505249023,"lo1":-89.0895004272461,"lo2":-89.04439544677734,"nx":28,"ny":28,"refTime":"2022-10-23T21:00:00:Z","depth":"4","parameterNumber":2,"parameterNumberName":"U-component_of_CURRENTS"},"data":[-0.0601,-0.0653,-0.0681,-0.0529,-0.0514,-0.0389,-0.0477,-0.0594,-0.0711,-0.1052,-0.1203,-0.1435,-0.1666,-0.1747,-0.1892,-0.1929,-0.2051,-0.2257,-0.2252,-0.257,-0.2599,-0.2625,-0.2623,0,0,0,0,0,-0.0664,-0.067,-0.0769,-0.0802,-0.0832,-0.0833,-0.0966,-0.1073,-0.1286,-0.1282,-0.1548,-0.1614,-0.181,-0.1948,-0.1968,-0.2078,-0.2341,-0.2082,-0.2338,-0.2588,-0.262,-0.2608,0,0,0,0,0,0,-0.0766,-0.08,-0.0924,-0.1052,-0.1123,-0.1051,-0.1179,-0.1257,-0.1348,-0.1748,-0.1674,-0.1995,-0.2247,-0.2353,-0.229,-0.2359,-0.2398,-0.2394,-0.2434,-0.2466,-0.2421,-0.238,-0.196,0,0,0,0,0,-0.0856,-0.0955,-0.1052,-0.1207,-0.1315,-0.1359,-0.154,-0.1575,-0.1852,-0.2096,-0.2191,-0.233,-0.2391,-0.2548,-0.2605,-0.2561,-0.2877,-0.2751,-0.277,-0.2906,-0.2911,-0.2838,-0.2859,-0.274,-0.2744,-0.2747,-0.2748,0,-0.0976,-0.1016,-0.1249,-0.1341,-0.1489,-0.1739,-0.1804,-0.2129,-0.2192,-0.2507,-0.2465,-0.2697,-0.2874,-0.2744,-0.2893,-0.2886,-0.2883,-0.2831,-0.2976,-0.2964,-0.2879,-0.2893,-0.2904,-0.2774,-0.2772,-0.277,-0.2768,0,-0.1032,-0.1156,-0.1266,-0.1513,-0.1608,-0.1771,-0.2082,-0.2155,-0.2548,-0.2673,-0.2814,-0.3138,-0.3206,-0.3326,-0.3329,-0.3278,-0.3157,-0.3072,-0.3367,-0.328,-0.2949,-0.2951,-0.2816,-0.2807,-0.2799,-0.2792,-0.2787,0,-0.1151,-0.1223,-0.1441,-0.1493,-0.1649,-0.1883,-0.2106,-0.2335,-0.2599,-0.2714,-0.3161,-0.3208,-0.3517,-0.3497,-0.3523,-0.3386,-0.3473,-0.3315,-0.3214,-0.3505,-0.3505,-0.3317,-0.3294,-0.3522,-0.3523,-0.3524,-0.3525,0,-0.1196,-0.135,-0.1458,-0.1521,-0.1733,-0.1874,-0.206,-0.2346,-0.2476,-0.2905,-0.3017,-0.3329,-0.3495,-0.3523,-0.3578,-0.3634,-0.3528,-0.3524,-0.3277,-0.3257,-0.3313,-0.3289,-0.3526,-0.3526,-0.3526,-0.3527,-0.3527,0,-0.1292,-0.1356,-0.1478,-0.1657,-0.1706,-0.184,-0.2088,-0.2258,-0.2553,-0.2741,-0.3045,-0.3184,-0.3489,-0.3506,-0.3622,-0.3655,-0.3653,-0.3615,-0.3605,-0.3208,-0.3044,-0.314,-0.3427,-0.3428,-0.3428,-0.3428,-0.3428,0,-0.1304,-0.1389,-0.1495,-0.1623,-0.1684,-0.1833,-0.1984,-0.2179,-0.2383,-0.2576,-0.283,-0.3072,-0.3225,-0.3409,-0.3523,-0.3514,-0.3597,-0.3624,-0.3294,-0.3283,-0.3041,-0.3238,-0.3552,-0.3429,-0.3429,-0.3429,-0.3429,0,-0.13,-0.1444,-0.1456,-0.1518,-0.1677,-0.1733,-0.1911,-0.2096,-0.222,-0.2453,-0.2641,-0.2993,-0.3118,-0.3197,-0.3333,-0.3412,-0.3583,-0.3372,-0.3359,-0.3312,-0.3505,-0.3267,-0.3242,-0.3546,-0.3547,-0.3548,-0.343,0,-0.1369,-0.1428,-0.1456,-0.155,-0.1627,-0.1693,-0.1821,-0.1926,-0.2066,-0.2189,-0.2455,-0.2589,-0.277,-0.2893,-0.2982,-0.3211,-0.313,-0.3026,-0.2888,-0.3108,-0.3026,-0.3028,-0.2895,-0.2887,-0.2881,-0.2875,0,0,-0.1342,-0.1396,-0.1443,-0.1488,-0.1546,-0.1608,-0.1674,-0.1764,-0.188,-0.1983,-0.2011,-0.2291,-0.2363,-0.262,-0.2801,-0.2786,-0.2733,-0.2839,-0.3015,-0.3033,-0.3048,-0.2982,-0.2991,-0.2864,-0.2861,-0.2859,-0.2857,0,-0.1347,-0.1402,-0.143,-0.1475,-0.1535,-0.1574,-0.1606,-0.1678,-0.1761,-0.1919,-0.1947,-0.2119,-0.2256,-0.236,-0.2427,-0.269,-0.2558,-0.2756,-0.301,-0.2963,-0.299,-0.3011,-0.2954,-0.2966,-0.2841,-0.2842,-0.2842,0,-0.1341,-0.1369,-0.1388,-0.1442,-0.1472,-0.1526,-0.1515,-0.1574,-0.1661,-0.1633,-0.1795,-0.1863,-0.1909,-0.2112,-0.2187,-0.2132,-0.2387,-0.2359,-0.2391,-0.2338,-0.2273,-0.2306,-0.2336,-0.1948,-0.1946,-0.1944,0,0,-0.1339,-0.1376,-0.1406,-0.1439,-0.1463,-0.1495,-0.1519,-0.1546,-0.1601,-0.1638,-0.1687,-0.1756,-0.1852,-0.1936,-0.1954,-0.2133,-0.1997,-0.2263,-0.2305,-0.2341,-0.2311,-0.2255,-0.2288,-0.1938,-0.1938,-0.1938,0,0,-0.1327,-0.1364,-0.1381,-0.1418,-0.1452,-0.1465,-0.1498,-0.1521,-0.16,-0.1629,-0.1629,-0.1642,-0.1799,-0.1765,-0.1686,-0.199,-0.1797,-0.1813,-0.2088,-0.2138,-0.2179,-0.214,-0.1599,0,0,0,0,0,-0.133,-0.1356,-0.1371,-0.1379,-0.1424,-0.1457,-0.1464,-0.1488,-0.151,-0.1546,-0.1614,-0.1563,-0.1745,-0.1673,-0.1678,-0.1878,-0.1856,-0.1871,-0.1884,-0.2269,-0.2323,-0.2369,0,0,0,0,0,0,-0.1333,-0.1342,-0.137,-0.1382,-0.1391,-0.1455,-0.1444,-0.1452,-0.1507,-0.1513,-0.1556,-0.1561,-0.1549,-0.1666,-0.1671,-0.1866,-0.1597,-0.1862,-0.1874,-0.1885,-0.2287,-0.2332,-0.237,0,0,0,0,0,-0.1335,-0.1343,-0.1413,-0.1381,-0.139,-0.1423,-0.1445,-0.1452,-0.1513,-0.1504,-0.1512,-0.1536,-0.1548,-0.1556,-0.1669,-0.1868,-0.1593,-0.1595,-0.187,-0.188,-0.1888,-0.2309,0,0,0,0,0,0,-0.1337,-0.1351,-0.1415,-0.1418,-0.1386,-0.1422,-0.1431,-0.1451,-0.1502,-0.151,-0.1477,-0.148,-0.1547,-0.1553,-0.1559,-0.1877,-0.1589,-0.1592,-0.1593,-0.1877,-0.1885,-0.1892,0,0,0,0,0,0,-0.1346,-0.1353,-0.1417,-0.1421,-0.1424,-0.1421,-0.1429,-0.145,-0.1503,-0.1474,-0.1477,-0.1478,-0.154,-0.1551,-0.1556,-0.1587,-0.1587,-0.1589,-0.159,-0.1591,-0.1883,-0.1889,0,0,0,0,0,0,-0.1349,-0.1355,-0.1421,-0.1423,-0.1426,-0.1461,-0.144,-0.149,-0.1494,-0.1472,-0.1496,-0.1497,-0.1538,-0.1543,-0.1554,-0.1583,-0.1586,-0.1587,-0.1588,-0.1589,-0.159,0,0,0,0,0,0,0,-0.1352,-0.131,-0.1395,-0.1425,-0.1428,-0.1441,-0.1443,-0.1444,-0.1495,-0.1495,-0.1496,-0.1497,-0.1574,-0.1577,-0.1579,-0.1579,0,0,-0.1587,-0.1588,0,0,0,0,0,0,0,0,-0.1307,-0.1309,-0.1395,-0.1396,-0.1396,-0.1442,-0.1443,-0.1443,-0.1495,-0.1495,-0.1496,-0.1497,-0.1575,-0.1577,-0.1579,0,0,0,0,0,0,0,0,0,0,0,0,0,0,0,-0.1395,-0.1396,0,-0.1442,-0.1443,-0.1443,-0.1495,-0.1495,-0.1496,-0.1496,-0.1575,-0.1577,-0.1579,0,0,0,0,0,0,0,0,0,0,0,0,0,0,0,0,0,0,0,0,0,0,0,0,0,0,0,0,0,0,0,0,0,0,0,0,0,0,0,0,0,0,0,0,0,0,0,0,0,0,0,0,0,0,0,0,0,0,0,0,0,0,0,0,0,0,0,0,0]}],[{"header":{"parameterUnit":"kt","parameterCategory":2,"dx":1,"dy":1,"la1":30.253999710083008,"la2":30.299108505249023,"lo1":-89.0895004272461,"lo2":-89.04439544677734,"nx":28,"ny":28,"refTime":"2022-10-23T21:00:00:Z","depth":"4","parameterNumber":3,"parameterNumberName":"V-component_of_CURRENTS"},"data":[-0.0512,-0.0647,-0.0736,-0.0947,-0.1088,-0.1299,-0.1428,-0.1429,-0.135,-0.1344,-0.1061,-0.1022,-0.0512,-0.076,-0.0052,0.0033,0.0352,0.0587,0.0591,0.1129,0.1147,0.1164,0.1093,0,0,0,0,0,-0.0505,-0.0577,-0.08,-0.1003,-0.1255,-0.1377,-0.1571,-0.1602,-0.1599,-0.1476,-0.1461,-0.1115,-0.064,-0.044,-0.0091,-0.0035,0.061,0.0372,0.082,0.114,0.1161,0.1085,0,0,0,0,0,0,-0.054,-0.0629,-0.0779,-0.0994,-0.1259,-0.142,-0.1507,-0.153,-0.1555,-0.1482,-0.1432,-0.1081,-0.0837,-0.0348,0.0019,0.0383,0.0549,0.071,0.0753,0.0777,0.0648,0.0387,0.024,0,0,0,0,0,-0.054,-0.0605,-0.0737,-0.0995,-0.118,-0.1383,-0.153,-0.1563,-0.1566,-0.1572,-0.1404,-0.112,-0.0737,-0.023,0.0182,0.0629,0.0983,0.1089,0.1107,0.1304,0.1156,0.1163,0.116,0.124,0.1243,0.1244,0.1245,0,-0.0509,-0.0584,-0.0828,-0.0974,-0.1088,-0.1281,-0.1399,-0.1467,-0.149,-0.145,-0.1387,-0.1058,-0.0769,-0.0191,0.0308,0.0851,0.1044,0.1139,0.1346,0.1188,0.1192,0.1184,0.1175,0.1262,0.1261,0.1259,0.1258,0,-0.0492,-0.0586,-0.0761,-0.096,-0.1048,-0.1169,-0.1376,-0.1442,-0.1407,-0.138,-0.1282,-0.0953,-0.0541,-0.0102,0.0533,0.0776,0.1144,0.129,0.1263,0.1274,0.1214,0.1198,0.1289,0.1283,0.1278,0.1274,0.127,0,-0.0489,-0.0605,-0.0764,-0.0839,-0.1034,-0.1104,-0.1254,-0.1271,-0.126,-0.1244,-0.0945,-0.0814,-0.0197,0.0119,0.0577,0.0971,0.107,0.1358,0.1371,0.1502,0.1485,0.1499,0.148,0.1661,0.1661,0.1661,0.1661,0,-0.0421,-0.0599,-0.0729,-0.0785,-0.0946,-0.1036,-0.1112,-0.1116,-0.114,-0.0968,-0.0904,-0.0537,-0.027,0.0153,0.0709,0.0796,0.1198,0.129,0.1367,0.1348,0.1491,0.1472,0.1661,0.1661,0.1661,0.166,0.166,0,-0.0398,-0.0486,-0.0633,-0.0809,-0.0841,-0.0931,-0.1031,-0.106,-0.0972,-0.0879,-0.0648,-0.042,-0.004,0.022,0.0731,0.071,0.1055,0.1277,0.1283,0.109,0.1059,0.1138,0.1274,0.1271,0.1268,0.1266,0.1264,0,-0.0332,-0.0459,-0.0494,-0.0644,-0.0714,-0.0721,-0.0779,-0.0772,-0.0707,-0.0656,-0.0371,-0.0216,0.0091,0.0288,0.0566,0.0865,0.1081,0.0997,0.1217,0.1218,0.1032,0.1124,0.1212,0.1231,0.1235,0.1238,0.124,0,-0.0257,-0.0354,-0.0362,-0.0434,-0.0471,-0.0513,-0.0555,-0.0564,-0.0589,-0.0417,-0.0389,-0.0048,0.0157,0.0263,0.0515,0.0752,0.1013,0.0955,0.0961,0.0944,0.13,0.1102,0.1102,0.1187,0.1192,0.1196,0.1217,0,-0.024,-0.029,-0.0313,-0.0358,-0.0386,-0.0425,-0.0406,-0.04,-0.0337,-0.0281,-0.014,0.0078,0.0244,0.0361,0.0542,0.0772,0.0787,0.0837,0.0857,0.0948,0.0934,0.0952,0.0716,0.0715,0.0714,0.0713,0,0,-0.0156,-0.0208,-0.017,-0.0214,-0.025,-0.0187,-0.025,-0.0222,-0.017,-0.0146,-0.0066,0.0156,0.0288,0.0444,0.0572,0.059,0.0678,0.0684,0.0885,0.0903,0.0921,0.0915,0.0933,0.0712,0.0711,0.0711,0.0711,0,-0.0139,-0.0126,-0.0158,-0.0169,-0.0166,-0.0161,-0.0165,-0.0137,-0.0104,-0.0067,0.004,0.019,0.0303,0.0428,0.0502,0.0574,0.0657,0.0649,0.0728,0.0872,0.0892,0.091,0.0907,0.0925,0.0708,0.0708,0.0708,0,-0.0082,-0.0086,-0.0097,-0.0103,-0.009,-0.0126,-0.0056,-0.0059,-0.0083,0.0044,0.0063,0.0187,0.0298,0.0413,0.0463,0.048,0.0657,0.0599,0.0605,0.0587,0.0733,0.0755,0.0775,0.0522,0.0521,0.052,0,0,-0.0063,-0.0082,-0.0073,-0.0097,-0.0092,-0.0066,-0.0064,-0.004,0.0005,0.0033,0.0101,0.0193,0.0282,0.0357,0.0402,0.0506,0.0528,0.0577,0.0586,0.0593,0.0579,0.0725,0.0747,0.0518,0.0518,0.0518,0,0,-0.005,-0.0052,-0.0035,-0.0063,-0.0056,-0.0038,-0.004,-0.0016,0.0043,0.0064,0.0147,0.0172,0.0256,0.0305,0.0267,0.0457,0.042,0.0428,0.0453,0.0465,0.0473,0.0443,0.0318,0,0,0,0,0,-0.003,-0.0059,-0.0045,-0.0048,-0.0045,-0.0053,-0.0049,-0.0009,0.0021,0.0023,0.0105,0.0142,0.0321,0.0289,0.0304,0.0389,0.049,0.0495,0.05,0.055,0.0562,0.0572,0,0,0,0,0,0,-0.0031,-0.0035,-0.0044,-0.0032,-0.0031,-0.0051,-0.0,0.0011,0.0023,0.0033,0.0125,0.0144,0.0203,0.0284,0.0297,0.0379,0.0314,0.0492,0.0496,0.05,0.0554,0.0564,0.0572,0,0,0,0,0,-0.0032,-0.0036,-0.0042,-0.003,-0.0029,0.001,0.0003,0.0012,0.0034,0.0108,0.0127,0.0065,0.02,0.0218,0.0292,0.0373,0.0305,0.031,0.0495,0.0498,0.0501,0.0559,0,0,0,0,0,0,-0.0033,-0.0015,-0.0041,-0.0039,-0.001,0.0014,0.0019,0.0013,0.0112,0.0127,0.0052,0.0059,0.0197,0.0212,0.0225,0.0371,0.0298,0.0303,0.0306,0.0497,0.05,0.0502,0,0,0,0,0,0,-0.0013,-0.0014,-0.0039,-0.0017,-0.0012,0.0017,0.0022,0.0062,0.0116,0.0054,0.006,0.0054,0.0199,0.0207,0.0218,0.0277,0.0293,0.0297,0.0301,0.0303,0.0499,0.0501,0,0,0,0,0,0,-0.0013,-0.0013,-0.0016,-0.0013,-0.0008,0.002,0.0058,0.0077,0.0076,0.0052,0.0082,0.0085,0.0195,0.0206,0.0212,0.0267,0.0275,0.0293,0.0296,0.0298,0.03,0,0,0,0,0,0,0,-0.0012,-0.0022,-0.0059,-0.0009,-0.0005,-0.0025,-0.0023,-0.0022,0.0077,0.0079,0.0082,0.0084,0.0267,0.0272,0.0277,0.0258,0,0,0.0293,0.0295,0,0,0,0,0,0,0,0,-0.0021,-0.0022,-0.0059,-0.0059,-0.0059,-0.0024,-0.0023,-0.0022,0.0077,0.0079,0.0081,0.0083,0.0268,0.0272,0.0276,0,0,0,0,0,0,0,0,0,0,0,0,0,0,0,-0.0059,-0.0059,0,-0.0024,-0.0024,-0.0023,0.0077,0.0079,0.0081,0.0082,0.0269,0.0273,0.0276,0,0,0,0,0,0,0,0,0,0,0,0,0,0,0,0,0,0,0,0,0,0,0,0,0,0,0,0,0,0,0,0,0,0,0,0,0,0,0,0,0,0,0,0,0,0,0,0,0,0,0,0,0,0,0,0,0,0,0,0,0,0,0,0,0,0,0,0,0]}]]]